| time (UTC) | temp F | wind direction | speed MPH | gust MPH | rain 1hr in | rain 24hr in | rain mn in | humidity % | barometer mb |
| 20260509201733 | 65 | 318 | 2.0 | 3.0 | 0.00 | 0.16 | 0.16 | 69 | 1006.0 |
| 20260509201230 | 65 | 285 | 5.0 | 6.0 | 0.00 | 0.16 | 0.16 | 67 | 1006.2 |
| 20260509200726 | 64 | 311 | 3.0 | 3.0 | 0.00 | 0.16 | 0.16 | 69 | 1006.2 |
| 20260509200221 | 66 | 249 | 6.0 | 7.0 | 0.00 | 0.16 | 0.16 | 71 | 1006.4 |
| 20260509195717 | 64 | 278 | 8.0 | 9.0 | 0.00 | 0.16 | 0.16 | 69 | 1006.6 |
| 20260509195213 | 64 | 317 | 5.0 | 6.0 | 0.00 | 0.16 | 0.16 | 71 | 1006.4 |
| 20260509194713 | 63 | 243 | 4.0 | 4.0 | 0.00 | 0.16 | 0.16 | 75 | 1006.2 |
| 20260509194210 | 63 | 193 | 6.0 | 8.0 | 0.00 | 0.16 | 0.16 | 71 | 1006.3 |
| 20260509193706 | 62 | 263 | 5.0 | 7.0 | 0.00 | 0.16 | 0.16 | 74 | 1006.5 |
| 20260509193206 | 63 | 346 | 5.0 | 8.0 | 0.00 | 0.16 | 0.16 | 70 | 1006.4 |
| 20260509192703 | 64 | 217 | 4.0 | 6.0 | 0.00 | 0.16 | 0.16 | 71 | 1006.6 |
| 20260509192158 | 64 | 243 | 6.0 | 9.0 | 0.00 | 0.16 | 0.16 | 74 | 1006.7 |
| 20260509191654 | 64 | 162 | 2.0 | 2.0 | 0.00 | 0.16 | 0.16 | 71 | 1006.6 |
| 20260509191150 | 63 | 288 | 6.0 | 7.0 | 0.00 | 0.16 | 0.16 | 74 | 1006.7 |
| 20260509190646 | 64 | 215 | 3.0 | 3.0 | 0.00 | 0.16 | 0.16 | 71 | 1006.7 |
| 20260509190143 | 63 | 245 | 2.0 | 2.0 | 0.00 | 0.16 | 0.16 | 77 | 1006.7 |
| 20260509185642 | 63 | 188 | 5.0 | 7.0 | 0.00 | 0.16 | 0.16 | 73 | 1006.8 |
| 20260509185137 | 63 | 168 | 5.0 | 6.0 | 0.00 | 0.16 | 0.16 | 75 | 1006.9 |
| 20260509184635 | 62 | 276 | 8.0 | 10.0 | 0.00 | 0.16 | 0.16 | 75 | 1006.8 |
| 20260509184132 | 61 | 248 | 3.0 | 3.0 | 0.00 | 0.16 | 0.16 | 76 | 1006.9 |
| 20260509183628 | 62 | 316 | 6.0 | 8.0 | 0.00 | 0.16 | 0.16 | 77 | 1007.0 |
| 20260509183123 | 62 | 178 | 2.0 | 3.0 | 0.00 | 0.16 | 0.16 | 76 | 1007.1 |
| 20260509182619 | 61 | 296 | 2.0 | 4.0 | 0.00 | 0.16 | 0.16 | 79 | 1006.9 |
| 20260509182117 | 62 | 175 | 3.0 | 4.0 | 0.00 | 0.16 | 0.16 | 78 | 1007.1 |
| 20260509181615 | 61 | 179 | 3.0 | 3.0 | 0.00 | 0.16 | 0.16 | 80 | 1007.0 |
| 20260509181112 | 60 | 258 | 11.0 | 13.0 | 0.00 | 0.16 | 0.16 | 80 | 1007.0 |
| 20260509180608 | 60 | 298 | 4.0 | 4.0 | 0.00 | 0.16 | 0.16 | 82 | 1007.1 |
| 20260509180105 | 60 | 199 | 3.0 | 4.0 | 0.00 | 0.16 | 0.16 | 83 | 1007.1 |
| 20260509175600 | 60 | 47 | 4.0 | 6.0 | 0.00 | 0.16 | 0.16 | 82 | 1007.0 |
| 20260509175058 | 59 | 259 | 7.0 | 10.0 | 0.00 | 0.16 | 0.16 | 85 | 1006.9 |
| 20260509174554 | 60 | 79 | 1.0 | 1.0 | 0.00 | 0.16 | 0.16 | 84 | 1007.2 |
| 20260509174049 | 60 | 174 | 2.0 | 2.0 | 0.00 | 0.16 | 0.16 | 84 | 1007.1 |
| 20260509173549 | 59 | 316 | 3.0 | 4.0 | 0.00 | 0.16 | 0.16 | 87 | 1007.1 |
| 20260509173046 | 58 | 320 | 1.0 | 1.0 | 0.00 | 0.16 | 0.16 | 87 | 1007.0 |
| 20260509172543 | 58 | 281 | 4.0 | 6.0 | 0.00 | 0.16 | 0.16 | 88 | 1007.2 |
| 20260509172039 | 57 | 0 | 2.0 | 2.0 | 0.00 | 0.16 | 0.16 | 90 | 1007.1 |
| 20260509171535 | 57 | 291 | 2.0 | 2.0 | 0.00 | 0.16 | 0.16 | 90 | 1007.0 |
| 20260509171031 | 57 | 265 | 4.0 | 4.0 | 0.00 | 0.16 | 0.16 | 90 | 1007.2 |
| 20260509170527 | 57 | 216 | 3.0 | 3.0 | 0.00 | 0.16 | 0.16 | 90 | 1007.0 |
| 20260509170023 | 57 | 246 | 5.0 | 6.0 | 0.00 | 0.16 | 0.16 | 90 | 1007.2 |
| 20260509165522 | 57 | 267 | 5.0 | 7.0 | 0.00 | 0.16 | 0.16 | 91 | 1007.0 |
| 20260509165018 | 57 | 335 | 3.0 | 3.0 | 0.00 | 0.16 | 0.16 | 92 | 1007.0 |
| 20260509164514 | 56 | 311 | 3.0 | 4.0 | 0.00 | 0.16 | 0.16 | 94 | 1007.0 |
| 20260509164009 | 56 | 267 | 3.0 | 4.0 | 0.00 | 0.16 | 0.16 | 95 | 1007.0 |
| 20260509163508 | 56 | 2 | 0.0 | 0.0 | 0.00 | 0.16 | 0.16 | 95 | 1007.1 |
| 20260509163008 | 56 | 0 | 2.0 | 3.0 | 0.00 | 0.16 | 0.16 | 95 | 1007.0 |
| 20260509162506 | 55 | 354 | 2.0 | 2.0 | 0.00 | 0.16 | 0.16 | 97 | 1007.3 |
| 20260509162001 | 54 | 182 | 3.0 | 3.0 | 0.00 | 0.16 | 0.16 | 98 | 1007.0 |
| 20260509161458 | 54 | 280 | 4.0 | 4.0 | 0.00 | 0.16 | 0.16 | 98 | 1007.1 |
| 20260509160953 | 54 | 122 | 2.0 | 3.0 | 0.00 | 0.16 | 0.16 | 99 | 1007.0 |
| 20260509160449 | 53 | 346 | 1.0 | 1.0 | 0.00 | 0.16 | 0.16 | 99 | 1007.0 |
| 20260509155944 | 53 | 353 | 1.0 | 2.0 | 0.00 | 0.16 | 0.16 | 99 | 1007.0 |
| 20260509155441 | 53 | 9 | 0.0 | 0.0 | 0.00 | 0.16 | 0.16 | 99 | 1007.0 |
| 20260509154938 | 52 | 119 | 1.0 | 2.0 | 0.00 | 0.16 | 0.16 | 99 | 1007.0 |
| 20260509154434 | 52 | 331 | 1.0 | 2.0 | 0.00 | 0.16 | 0.16 | 99 | 1007.0 |
| 20260509153931 | 52 | 326 | 3.0 | 4.0 | 0.05 | 0.16 | 0.16 | 99 | 1007.0 |
| 20260509153428 | 53 | 122 | 3.0 | 4.0 | 0.05 | 0.16 | 0.16 | 99 | 1006.8 |
| 20260509152925 | 53 | 322 | 2.0 | 4.0 | 0.00 | 0.15 | 0.15 | 99 | 1007.0 |
| 20260509152421 | 52 | 33 | 1.0 | 2.0 | 0.00 | 0.15 | 0.15 | 99 | 1007.1 |
| 20260509151918 | 52 | 45 | 1.0 | 1.0 | 0.00 | 0.15 | 0.15 | 99 | 1007.0 |
| 20260509151414 | 52 | 306 | 2.0 | 2.0 | 0.00 | 0.15 | 0.15 | 99 | 1007.0 |
| 20260509150912 | 51 | 40 | 1.0 | 1.0 | 0.07 | 0.15 | 0.15 | 99 | 1007.0 |
| 20260509150410 | 51 | 12 | 1.0 | 1.0 | 0.12 | 0.15 | 0.15 | 99 | 1006.9 |
| 20260509145908 | 51 | 278 | 3.0 | 4.0 | 0.12 | 0.14 | 0.14 | 99 | 1007.0 |
| 20260509145407 | 51 | 11 | 2.0 | 3.0 | 0.12 | 0.13 | 0.13 | 99 | 1007.1 |
| 20260509144903 | 51 | 340 | 1.0 | 1.0 | 0.12 | 0.12 | 0.12 | 99 | 1007.1 |
| 20260509144400 | 51 | 58 | 1.0 | 1.0 | 0.12 | 0.11 | 0.11 | 99 | 1007.0 |
| 20260509143857 | 51 | 30 | 1.0 | 1.0 | 0.05 | 0.10 | 0.10 | 99 | 1007.1 |
| 20260509143355 | 51 | 34 | 0.0 | 0.0 | 0.00 | 0.09 | 0.09 | 99 | 1006.9 |
| 20260509142851 | 51 | 307 | 3.0 | 6.0 | 0.00 | 0.09 | 0.09 | 99 | 1007.1 |
| 20260509142348 | 51 | 273 | 2.0 | 2.0 | 0.00 | 0.09 | 0.09 | 99 | 1007.1 |
| 20260509141843 | 51 | 172 | 5.0 | 7.0 | 0.00 | 0.09 | 0.09 | 99 | 1007.1 |
| 20260509141341 | 51 | 11 | 1.0 | 1.0 | 0.00 | 0.09 | 0.09 | 99 | 1007.0 |
| 20260509140837 | 51 | 170 | 3.0 | 4.0 | 0.00 | 0.09 | 0.09 | 99 | 1007.1 |
| 20260509140334 | 51 | 324 | 1.0 | 2.0 | 0.00 | 0.09 | 0.09 | 99 | 1006.9 |
| 20260509135832 | 51 | 85 | 1.0 | 1.0 | 0.00 | 0.09 | 0.09 | 99 | 1007.2 |
| 20260509135329 | 51 | 24 | 1.0 | 1.0 | 0.00 | 0.09 | 0.09 | 99 | 1007.2 |
| 20260509134826 | 50 | 56 | 2.0 | 2.0 | 0.00 | 0.09 | 0.09 | 99 | 1007.2 |
| 20260509134323 | 50 | 14 | 0.0 | 0.0 | 0.07 | 0.09 | 0.09 | 99 | 1007.2 |
| 20260509133820 | 50 | 108 | 1.0 | 1.0 | 0.07 | 0.09 | 0.09 | 99 | 1007.3 |
| 20260509133317 | 50 | 1 | 1.0 | 1.0 | 0.00 | 0.08 | 0.08 | 99 | 1007.3 |
| 20260509132816 | 50 | 169 | 3.0 | 4.0 | 0.05 | 0.08 | 0.08 | 99 | 1007.0 |
| 20260509132314 | 50 | 256 | 2.0 | 2.0 | 0.05 | 0.08 | 0.08 | 99 | 1007.5 |
| 20260509131810 | 50 | 306 | 1.0 | 2.0 | 0.00 | 0.07 | 0.07 | 99 | 1007.2 |
| 20260509131307 | 50 | 271 | 3.0 | 3.0 | 0.00 | 0.07 | 0.07 | 99 | 1007.3 |
| 20260509130803 | 50 | 32 | 0.0 | 1.0 | 0.07 | 0.07 | 0.07 | 99 | 1007.5 |
| 20260509130259 | 50 | 170 | 3.0 | 3.0 | 0.07 | 0.07 | 0.07 | 99 | 1007.3 |
| 20260509125756 | 50 | 16 | 1.0 | 1.0 | 0.05 | 0.06 | 0.06 | 99 | 1007.3 |
| 20260509125253 | 50 | 180 | 1.0 | 2.0 | 0.12 | 0.06 | 0.06 | 99 | 1007.0 |
| 20260509124749 | 50 | 198 | 3.0 | 4.0 | 0.14 | 0.05 | 0.05 | 99 | 1007.3 |
| 20260509124245 | 50 | 86 | 2.0 | 2.0 | 0.07 | 0.04 | 0.04 | 99 | 1007.5 |
| 20260509123744 | 50 | 343 | 1.0 | 1.0 | 0.00 | 0.03 | 0.03 | 99 | 1007.5 |
| 20260509123241 | 50 | 31 | 1.0 | 1.0 | 0.00 | 0.03 | 0.03 | 99 | 1007.5 |
| 20260509122736 | 50 | 174 | 2.0 | 2.0 | 0.00 | 0.03 | 0.03 | 99 | 1007.3 |
| 20260509122233 | 50 | 77 | 2.0 | 2.0 | 0.00 | 0.03 | 0.03 | 99 | 1007.5 |
| 20260509121730 | 50 | 19 | 0.0 | 0.0 | 0.00 | 0.03 | 0.03 | 99 | 1007.3 |
| 20260509121228 | 50 | 70 | 2.0 | 2.0 | 0.00 | 0.03 | 0.03 | 99 | 1007.3 |
| 20260509120726 | 50 | 168 | 2.0 | 3.0 | 0.00 | 0.03 | 0.03 | 99 | 1007.3 |
| 20260509120223 | 50 | 16 | 0.0 | 0.0 | 0.00 | 0.03 | 0.03 | 99 | 1007.5 |
| 20260509115721 | 49 | 66 | 0.0 | 1.0 | 0.00 | 0.03 | 0.03 | 99 | 1007.6 |
| 20260509115218 | 49 | 38 | 0.0 | 0.0 | 0.00 | 0.03 | 0.03 | 99 | 1007.5 |
| 20260509114716 | 49 | 181 | 1.0 | 2.0 | 0.00 | 0.03 | 0.03 | 99 | 1007.6 |
| 20260509114215 | 49 | 299 | 0.0 | 1.0 | 0.00 | 0.03 | 0.03 | 99 | 1007.5 |
| 20260509113713 | 49 | 34 | 2.0 | 3.0 | 0.00 | 0.03 | 0.03 | 99 | 1007.5 |
| 20260509113210 | 49 | 31 | 0.0 | 1.0 | 0.00 | 0.03 | 0.03 | 99 | 1007.3 |
| 20260509112706 | 49 | 46 | 0.0 | 0.0 | 0.00 | 0.03 | 0.03 | 99 | 1007.2 |
| 20260509112203 | 48 | 19 | 0.0 | 0.0 | 0.00 | 0.03 | 0.03 | 99 | 1007.5 |
| 20260509111700 | 48 | 106 | 2.0 | 2.0 | 0.00 | 0.03 | 0.03 | 99 | 1007.3 |
| 20260509111157 | 48 | 32 | 0.0 | 0.0 | 0.00 | 0.03 | 0.03 | 99 | 1007.2 |
| 20260509110655 | 48 | 111 | 2.0 | 3.0 | 0.00 | 0.03 | 0.03 | 99 | 1007.2 |
| 20260509110151 | 48 | 28 | 0.0 | 0.0 | 0.00 | 0.03 | 0.03 | 99 | 1007.3 |
| 20260509105649 | 48 | 26 | 0.0 | 0.0 | 0.00 | 0.03 | 0.03 | 99 | 1007.1 |
| 20260509105147 | 48 | 22 | 0.0 | 1.0 | 0.00 | 0.03 | 0.03 | 99 | 1007.2 |
| 20260509104643 | 48 | 3 | 0.0 | 0.0 | 0.00 | 0.03 | 0.03 | 99 | 1007.2 |
| 20260509104140 | 48 | 97 | 0.0 | 0.0 | 0.00 | 0.03 | 0.03 | 99 | 1007.2 |
| 20260509103638 | 48 | 38 | 0.0 | 0.0 | 0.00 | 0.03 | 0.03 | 99 | 1007.1 |
| 20260509103136 | 48 | 22 | 0.0 | 0.0 | 0.00 | 0.03 | 0.03 | 99 | 1007.1 |
| 20260509102633 | 48 | 43 | 0.0 | 0.0 | 0.00 | 0.03 | 0.03 | 99 | 1007.2 |
| 20260509102130 | 47 | 29 | 0.0 | 0.0 | 0.00 | 0.03 | 0.03 | 99 | 1007.1 |
| 20260509101626 | 47 | 23 | 0.0 | 0.0 | 0.00 | 0.03 | 0.03 | 99 | 1007.2 |
| 20260509101123 | 47 | 35 | 0.0 | 0.0 | 0.00 | 0.03 | 0.03 | 99 | 1007.1 |
| 20260509100621 | 47 | 20 | 0.0 | 0.0 | 0.05 | 0.03 | 0.03 | 99 | 1007.6 |
| 20260509100118 | 47 | 15 | 0.0 | 0.0 | 0.05 | 0.03 | 0.03 | 99 | 1007.5 |
| 20260509095614 | 47 | 25 | 0.0 | 0.0 | 0.00 | 0.02 | 0.02 | 99 | 1007.3 |
| 20260509095112 | 47 | 22 | 0.0 | 1.0 | 0.00 | 0.02 | 0.02 | 99 | 1007.2 |
| 20260509094607 | 47 | 51 | 0.0 | 0.0 | 0.00 | 0.02 | 0.02 | 99 | 1007.5 |
| 20260509094105 | 47 | 25 | 0.0 | 0.0 | 0.00 | 0.02 | 0.02 | 99 | 1007.3 |
| 20260509093604 | 47 | 20 | 0.0 | 0.0 | 0.00 | 0.02 | 0.02 | 99 | 1007.3 |
| 20260509093100 | 47 | 29 | 0.0 | 1.0 | 0.00 | 0.02 | 0.02 | 99 | 1007.5 |
| 20260509092558 | 47 | 41 | 0.0 | 0.0 | 0.00 | 0.02 | 0.02 | 99 | 1007.5 |
| 20260509092057 | 47 | 21 | 0.0 | 0.0 | 0.00 | 0.02 | 0.02 | 99 | 1007.6 |
| 20260509091554 | 47 | 23 | 0.0 | 0.0 | 0.00 | 0.02 | 0.02 | 99 | 1007.7 |
| 20260509091050 | 47 | 22 | 0.0 | 0.0 | 0.00 | 0.02 | 0.02 | 99 | 1007.8 |
| 20260509090548 | 47 | 20 | 0.0 | 0.0 | 0.00 | 0.02 | 0.02 | 99 | 1007.7 |
| 20260509090045 | 47 | 20 | 0.0 | 0.0 | 0.00 | 0.02 | 0.02 | 99 | 1007.8 |
| 20260509085542 | 47 | 22 | 0.0 | 0.0 | 0.00 | 0.02 | 0.02 | 99 | 1008.1 |
| 20260509085038 | 47 | 20 | 0.0 | 0.0 | 0.00 | 0.02 | 0.02 | 99 | 1008.1 |
| 20260509084536 | 47 | 17 | 0.0 | 0.0 | 0.07 | 0.02 | 0.02 | 99 | 1008.1 |
| 20260509084032 | 47 | 20 | 0.0 | 0.0 | 0.07 | 0.02 | 0.02 | 99 | 1007.8 |
| 20260509083530 | 47 | 20 | 0.0 | 0.0 | 0.00 | 0.01 | 0.01 | 99 | 1007.9 |
| 20260509083026 | 47 | 19 | 0.0 | 0.0 | 0.00 | 0.01 | 0.01 | 99 | 1008.0 |
| 20260509082524 | 47 | 23 | 0.0 | 0.0 | 0.00 | 0.01 | 0.01 | 99 | 1008.0 |
| 20260509082021 | 47 | 14 | 0.0 | 0.0 | 0.00 | 0.01 | 0.01 | 99 | 1008.1 |
| 20260509081518 | 47 | 19 | 0.0 | 0.0 | 0.00 | 0.01 | 0.01 | 99 | 1008.1 |
| 20260509081015 | 47 | 358 | 0.0 | 0.0 | 0.00 | 0.01 | 0.01 | 99 | 1008.3 |
| 20260509080513 | 47 | 21 | 0.0 | 0.0 | 0.00 | 0.01 | 0.01 | 99 | 1007.9 |
| 20260509080011 | 47 | 39 | 0.0 | 0.0 | 0.00 | 0.01 | 0.01 | 99 | 1008.0 |
| 20260509075508 | 47 | 29 | 0.0 | 0.0 | 0.00 | 0.01 | 0.01 | 99 | 1008.0 |
| 20260509075006 | 47 | 21 | 0.0 | 0.0 | 0.00 | 0.01 | 0.01 | 99 | 1007.9 |
| 20260509074503 | 47 | 30 | 0.0 | 0.0 | 0.00 | 0.01 | 0.01 | 99 | 1008.0 |
| 20260509073959 | 47 | 21 | 0.0 | 0.0 | 0.00 | 0.01 | 0.01 | 99 | 1008.1 |
| 20260509073455 | 47 | 27 | 0.0 | 0.0 | 0.00 | 0.01 | 0.01 | 99 | 1008.1 |
| 20260509072952 | 47 | 43 | 1.0 | 1.0 | 0.00 | 0.01 | 0.01 | 99 | 1008.0 |
| 20260509072449 | 47 | 25 | 0.0 | 0.0 | 0.00 | 0.01 | 0.01 | 99 | 1007.9 |
| 20260509071946 | 47 | 33 | 0.0 | 0.0 | 0.00 | 0.01 | 0.01 | 99 | 1008.0 |
| 20260509071442 | 47 | 21 | 0.0 | 0.0 | 0.00 | 0.01 | 0.01 | 99 | 1008.0 |
| 20260509070940 | 47 | 22 | 0.0 | 1.0 | 0.00 | 0.01 | 0.01 | 99 | 1008.1 |
| 20260509070436 | 47 | 23 | 0.0 | 1.0 | 0.00 | 0.01 | 0.01 | 99 | 1008.0 |
| 20260509065932 | 47 | 24 | 0.0 | 1.0 | 0.00 | 0.01 | 0.01 | 99 | 1008.1 |
| 20260509065428 | 47 | 29 | 0.0 | 1.0 | 0.00 | 0.01 | 0.01 | 99 | 1008.1 |
| 20260509064924 | 47 | 33 | 0.0 | 1.0 | 0.00 | 0.01 | 0.01 | 99 | 1008.0 |
| 20260509064422 | 47 | 21 | 1.0 | 1.0 | 0.00 | 0.01 | 0.01 | 99 | 1008.2 |
| 20260509063920 | 47 | 23 | 0.0 | 1.0 | 0.00 | 0.01 | 0.01 | 99 | 1008.0 |
| 20260509063416 | 47 | 24 | 0.0 | 0.0 | 0.00 | 0.01 | 0.01 | 99 | 1008.1 |
| 20260509062913 | 47 | 29 | 0.0 | 0.0 | 0.00 | 0.01 | 0.01 | 99 | 1008.2 |
| 20260509062410 | 47 | 27 | 0.0 | 0.0 | 0.00 | 0.01 | 0.01 | 99 | 1008.4 |
| 20260509061907 | 47 | 26 | 0.0 | 0.0 | 0.00 | 0.01 | 0.01 | 99 | 1008.2 |
| 20260509061405 | 47 | 21 | 0.0 | 0.0 | 0.00 | 0.01 | 0.01 | 99 | 1008.5 |
| 20260509060902 | 47 | 24 | 0.0 | 0.0 | 0.00 | 0.01 | 0.01 | 99 | 1008.4 |
| 20260509060359 | 47 | 24 | 0.0 | 0.0 | 0.00 | 0.01 | 0.01 | 99 | 1008.4 |
| 20260509055854 | 47 | 21 | 0.0 | 0.0 | 0.00 | 0.01 | 0.01 | 99 | 1008.6 |
| 20260509055349 | 47 | 38 | 0.0 | 0.0 | 0.00 | 0.01 | 0.01 | 99 | 1008.6 |
| 20260509054847 | 47 | 26 | 0.0 | 0.0 | 0.00 | 0.01 | 0.01 | 99 | 1008.8 |
| 20260509054343 | 47 | 22 | 0.0 | 0.0 | 0.00 | 0.01 | 0.01 | 99 | 1008.8 |
| 20260509053842 | 47 | 20 | 0.0 | 0.0 | 0.05 | 0.01 | 0.01 | 99 | 1008.9 |
| 20260509053339 | 47 | 19 | 0.0 | 0.0 | 0.05 | 0.01 | 0.01 | 99 | 1009.1 |
| 20260509052837 | 47 | 19 | 0.0 | 0.0 | 0.00 | 0.00 | 0.00 | 99 | 1009.1 |
| 20260509052334 | 47 | 20 | 0.0 | 0.0 | 0.00 | 0.00 | 0.00 | 99 | 1009.2 |
| 20260509051832 | 47 | 23 | 0.0 | 0.0 | 0.00 | 0.00 | 0.00 | 99 | 1009.1 |
| 20260509051330 | 47 | 20 | 0.0 | 0.0 | 0.00 | 0.00 | 0.00 | 99 | 1009.3 |
| 20260509050826 | 47 | 20 | 0.0 | 0.0 | 0.00 | 0.00 | 0.00 | 99 | 1009.1 |
| 20260509050323 | 48 | 20 | 0.0 | 0.0 | 0.00 | 0.00 | 0.00 | 99 | 1009.2 |
| 20260509045820 | 48 | 21 | 0.0 | 0.0 | 0.00 | 0.00 | 0.00 | 99 | 1009.3 |
| 20260509045317 | 48 | 21 | 0.0 | 0.0 | 0.00 | 0.00 | 0.00 | 99 | 1009.3 |
| 20260509044814 | 48 | 38 | 0.0 | 1.0 | 0.00 | 0.00 | 0.00 | 99 | 1009.3 |
| 20260509044312 | 48 | 35 | 1.0 | 1.0 | 0.00 | 0.00 | 0.00 | 99 | 1009.2 |
| 20260509043808 | 48 | 41 | 0.0 | 1.0 | 0.00 | 0.00 | 0.00 | 99 | 1009.3 |
| 20260509043304 | 48 | 22 | 0.0 | 0.0 | 0.00 | 0.00 | 0.00 | 99 | 1009.5 |
| 20260509042800 | 48 | 23 | 0.0 | 0.0 | 0.00 | 0.00 | 0.00 | 99 | 1009.6 |
| 20260509042256 | 48 | 27 | 0.0 | 0.0 | 0.00 | 0.00 | 0.00 | 99 | 1009.7 |
| 20260509041753 | 48 | 22 | 0.0 | 0.0 | 0.00 | 0.00 | 0.00 | 99 | 1009.8 |
| 20260509041250 | 48 | 30 | 0.0 | 0.0 | 0.00 | 0.00 | 0.00 | 99 | 1009.8 |
| 20260509040749 | 48 | 20 | 0.0 | 0.0 | 0.00 | 0.00 | 0.00 | 99 | 1009.9 |
| 20260509040245 | 48 | 21 | 0.0 | 0.0 | 0.00 | 0.00 | 0.00 | 99 | 1009.9 |
| 20260509035742 | 48 | 25 | 0.0 | 0.0 | 0.00 | 0.18 | 0.18 | 99 | 1009.7 |
| 20260509035239 | 48 | 36 | 0.0 | 0.0 | 0.00 | 0.18 | 0.18 | 99 | 1010.2 |
| 20260509034736 | 48 | 25 | 0.0 | 0.0 | 0.00 | 0.18 | 0.18 | 99 | 1010.1 |
| 20260509034234 | 48 | 20 | 0.0 | 0.0 | 0.07 | 0.18 | 0.18 | 99 | 1010.1 |
| 20260509033730 | 48 | 19 | 0.0 | 0.0 | 0.07 | 0.18 | 0.18 | 99 | 1010.2 |
| 20260509033227 | 48 | 23 | 0.0 | 0.0 | 0.00 | 0.17 | 0.17 | 99 | 1010.2 |
| 20260509032725 | 48 | 23 | 0.0 | 0.0 | 0.00 | 0.17 | 0.17 | 99 | 1010.2 |
| 20260509032221 | 48 | 40 | 0.0 | 0.0 | 0.00 | 0.17 | 0.17 | 99 | 1010.4 |
| 20260509031719 | 48 | 36 | 0.0 | 0.0 | 0.00 | 0.17 | 0.17 | 99 | 1010.6 |
| 20260509031216 | 48 | 20 | 0.0 | 0.0 | 0.00 | 0.17 | 0.17 | 99 | 1010.7 |
| 20260509030714 | 48 | 22 | 0.0 | 0.0 | 0.05 | 0.17 | 0.17 | 99 | 1010.6 |
| 20260509030211 | 48 | 28 | 0.0 | 0.0 | 0.05 | 0.17 | 0.17 | 99 | 1010.7 |
| 20260509025708 | 48 | 32 | 0.0 | 0.0 | 0.00 | 0.16 | 0.16 | 99 | 1010.9 |
| 20260509025204 | 48 | 12 | 0.0 | 0.0 | 0.00 | 0.16 | 0.16 | 99 | 1010.8 |
| 20260509024659 | 48 | 8 | 0.0 | 0.0 | 0.07 | 0.16 | 0.16 | 99 | 1011.0 |
| 20260509024155 | 48 | 12 | 0.0 | 1.0 | 0.07 | 0.16 | 0.16 | 99 | 1011.1 |
| 20260509023653 | 48 | 17 | 0.0 | 1.0 | 0.00 | 0.15 | 0.15 | 99 | 1011.3 |
| 20260509023150 | 48 | 12 | 0.0 | 0.0 | 0.05 | 0.15 | 0.15 | 99 | 1011.3 |
| 20260509022646 | 48 | 8 | 0.0 | 0.0 | 0.05 | 0.15 | 0.15 | 99 | 1011.0 |
| 20260509022144 | 48 | 16 | 0.0 | 0.0 | 0.00 | 0.14 | 0.14 | 99 | 1011.0 |
| 20260509021640 | 48 | 46 | 0.0 | 1.0 | 0.07 | 0.14 | 0.14 | 99 | 1010.9 |
| 20260509021138 | 49 | 343 | 0.0 | 0.0 | 0.07 | 0.14 | 0.14 | 99 | 1010.9 |
| 20260509020636 | 49 | 21 | 0.0 | 0.0 | 0.05 | 0.13 | 0.13 | 99 | 1010.9 |
| 20260509020133 | 49 | 9 | 0.0 | 1.0 | 0.05 | 0.13 | 0.13 | 99 | 1010.7 |
| 20260509015631 | 49 | 334 | 0.0 | 0.0 | 0.00 | 0.12 | 0.12 | 99 | 1010.7 |
| 20260509015128 | 49 | 19 | 0.0 | 0.0 | 0.07 | 0.12 | 0.12 | 99 | 1010.2 |
| 20260509014625 | 49 | 19 | 0.0 | 0.0 | 0.07 | 0.12 | 0.12 | 99 | 1010.2 |
| 20260509014121 | 49 | 21 | 0.0 | 0.0 | 0.00 | 0.11 | 0.11 | 99 | 1010.2 |
| 20260509013619 | 49 | 25 | 0.0 | 0.0 | 0.00 | 0.11 | 0.11 | 99 | 1010.2 |
| 20260509013114 | 49 | 51 | 0.0 | 0.0 | 0.00 | 0.11 | 0.11 | 99 | 1010.1 |
| 20260509012611 | 49 | 29 | 0.0 | 0.0 | 0.00 | 0.11 | 0.11 | 99 | 1010.0 |
| 20260509012108 | 49 | 20 | 0.0 | 0.0 | 0.00 | 0.11 | 0.11 | 99 | 1010.0 |
| 20260509011606 | 49 | 10 | 0.0 | 0.0 | 0.07 | 0.11 | 0.11 | 99 | 1010.0 |
| 20260509011102 | 49 | 21 | 0.0 | 0.0 | 0.07 | 0.11 | 0.11 | 99 | 1010.0 |
| 20260509010600 | 49 | 19 | 0.0 | 0.0 | 0.00 | 0.10 | 0.10 | 99 | 1009.7 |
| 20260509010057 | 49 | 22 | 0.0 | 0.0 | 0.00 | 0.10 | 0.10 | 99 | 1009.8 |
| 20260509005555 | 49 | 21 | 0.0 | 0.0 | 0.00 | 0.10 | 0.10 | 99 | 1009.7 |
| 20260509005050 | 49 | 18 | 0.0 | 0.0 | 0.00 | 0.10 | 0.10 | 99 | 1009.7 |
| 20260509004547 | 49 | 12 | 0.0 | 0.0 | 0.00 | 0.10 | 0.10 | 98 | 1009.8 |
| 20260509004043 | 49 | 23 | 0.0 | 0.0 | 0.00 | 0.10 | 0.10 | 98 | 1009.7 |
| 20260509003542 | 49 | 20 | 0.0 | 0.0 | 0.00 | 0.10 | 0.10 | 98 | 1009.7 |
| 20260509003039 | 49 | 22 | 0.0 | 0.0 | 0.00 | 0.10 | 0.10 | 98 | 1009.8 |
| 20260509002536 | 49 | 26 | 0.0 | 0.0 | 0.00 | 0.10 | 0.10 | 98 | 1009.5 |
| 20260509002034 | 49 | 22 | 0.0 | 0.0 | 0.00 | 0.10 | 0.10 | 98 | 1009.4 |
| 20260509001531 | 49 | 20 | 0.0 | 0.0 | 0.00 | 0.10 | 0.10 | 98 | 1009.5 |
| 20260509001027 | 49 | 20 | 0.0 | 0.0 | 0.00 | 0.10 | 0.10 | 98 | 1009.4 |
| 20260509000525 | 49 | 19 | 0.0 | 0.0 | 0.00 | 0.10 | 0.10 | 98 | 1009.5 |
| 20260509000021 | 50 | 19 | 0.0 | 0.0 | 0.00 | 0.10 | 0.10 | 98 | 1009.1 |
| 20260508235519 | 50 | 19 | 0.0 | 0.0 | 0.00 | 0.10 | 0.10 | 98 | 1009.2 |
| 20260508235015 | 50 | 21 | 0.0 | 0.0 | 0.00 | 0.10 | 0.10 | 97 | 1009.3 |
| 20260508234513 | 50 | 21 | 0.0 | 0.0 | 0.00 | 0.10 | 0.10 | 97 | 1009.3 |
| 20260508234009 | 50 | 19 | 0.0 | 0.0 | 0.00 | 0.10 | 0.10 | 97 | 1009.3 |
| 20260508233509 | 50 | 20 | 0.0 | 0.0 | 0.00 | 0.10 | 0.10 | 97 | 1009.1 |
| 20260508233006 | 50 | 35 | 0.0 | 0.0 | 0.00 | 0.10 | 0.10 | 97 | 1009.3 |
| 20260508232503 | 50 | 23 | 0.0 | 0.0 | 0.00 | 0.10 | 0.10 | 96 | 1009.0 |
| 20260508231959 | 50 | 19 | 0.0 | 0.0 | 0.00 | 0.10 | 0.10 | 96 | 1009.4 |
| 20260508231457 | 50 | 21 | 0.0 | 0.0 | 0.00 | 0.10 | 0.10 | 96 | 1009.4 |
| 20260508230954 | 50 | 15 | 0.0 | 0.0 | 0.00 | 0.10 | 0.10 | 95 | 1009.6 |
| 20260508230450 | 50 | 22 | 0.0 | 0.0 | 0.00 | 0.10 | 0.10 | 95 | 1009.5 |
| 20260508225947 | 50 | 16 | 0.0 | 0.0 | 0.00 | 0.10 | 0.10 | 95 | 1009.7 |
| 20260508225444 | 50 | 14 | 0.0 | 0.0 | 0.00 | 0.10 | 0.10 | 94 | 1009.6 |
| 20260508224941 | 50 | 15 | 0.0 | 0.0 | 0.00 | 0.10 | 0.10 | 93 | 1009.7 |
| 20260508224439 | 50 | 6 | 0.0 | 0.0 | 0.00 | 0.10 | 0.10 | 94 | 1009.6 |
| 20260508223936 | 50 | 5 | 0.0 | 0.0 | 0.00 | 0.10 | 0.10 | 93 | 1009.6 |
| 20260508223434 | 50 | 13 | 0.0 | 0.0 | 0.00 | 0.10 | 0.10 | 93 | 1009.7 |
| 20260508222931 | 50 | 8 | 0.0 | 0.0 | 0.00 | 0.10 | 0.10 | 93 | 1009.8 |
| 20260508222428 | 50 | 3 | 1.0 | 1.0 | 0.00 | 0.10 | 0.10 | 93 | 1009.6 |
| 20260508221925 | 50 | 312 | 2.0 | 2.0 | 0.00 | 0.10 | 0.10 | 93 | 1010.0 |
| 20260508221420 | 50 | 284 | 4.0 | 4.0 | 0.05 | 0.10 | 0.10 | 92 | 1009.7 |
| 20260508220917 | 50 | 304 | 3.0 | 4.0 | 0.05 | 0.10 | 0.10 | 92 | 1009.9 |
| 20260508220414 | 50 | 346 | 2.0 | 3.0 | 0.00 | 0.09 | 0.09 | 91 | 1009.6 |
| 20260508215910 | 50 | 289 | 3.0 | 4.0 | 0.00 | 0.09 | 0.09 | 91 | 1009.8 |
| 20260508215407 | 50 | 323 | 6.0 | 7.0 | 0.00 | 0.09 | 0.09 | 91 | 1009.9 |
| 20260508214904 | 50 | 290 | 3.0 | 4.0 | 0.00 | 0.09 | 0.09 | 91 | 1010.1 |
| 20260508214401 | 50 | 340 | 1.0 | 2.0 | 0.07 | 0.09 | 0.09 | 92 | 1010.0 |
| 20260508213857 | 50 | 1 | 1.0 | 1.0 | 0.12 | 0.09 | 0.09 | 91 | 1010.2 |
| 20260508213354 | 50 | 271 | 4.0 | 4.0 | 0.12 | 0.08 | 0.08 | 91 | 1010.2 |
| 20260508212850 | 50 | 294 | 2.0 | 3.0 | 0.07 | 0.07 | 0.07 | 93 | 1010.2 |
| 20260508212347 | 50 | 341 | 1.0 | 1.0 | 0.12 | 0.07 | 0.07 | 93 | 1010.2 |
| 20260508211842 | 50 | 332 | 1.0 | 1.0 | 0.12 | 0.06 | 0.06 | 92 | 1010.2 |
| 20260508211338 | 50 | 253 | 2.0 | 2.0 | 0.07 | 0.05 | 0.05 | 91 | 1010.0 |
| 20260508210836 | 50 | 351 | 1.0 | 1.0 | 0.05 | 0.04 | 0.04 | 90 | 1009.9 |
| 20260508210333 | 50 | 2 | 0.0 | 1.0 | 0.05 | 0.04 | 0.04 | 90 | 1010.0 |
| 20260508205829 | 50 | 350 | 1.0 | 1.0 | 0.00 | 0.03 | 0.03 | 89 | 1009.7 |
| 20260508205326 | 50 | 349 | 1.0 | 1.0 | 0.00 | 0.03 | 0.03 | 89 | 1009.9 |
| 20260508204822 | 50 | 353 | 1.0 | 1.0 | 0.00 | 0.03 | 0.03 | 89 | 1009.8 |
| 20260508204319 | 50 | 49 | 1.0 | 1.0 | 0.00 | 0.03 | 0.03 | 89 | 1009.7 |
| 20260508203815 | 51 | 334 | 2.0 | 2.0 | 0.07 | 0.03 | 0.03 | 88 | 1009.9 |
| 20260508203311 | 51 | 32 | 2.0 | 2.0 | 0.12 | 0.03 | 0.03 | 87 | 1009.7 |
| 20260508202807 | 51 | 87 | 2.0 | 2.0 | 0.12 | 0.02 | 0.02 | 86 | 1009.9 |
| 20260508202307 | 51 | 354 | 2.0 | 3.0 | 0.07 | 0.01 | 0.01 | 85 | 1009.9 |